FW6725 Weather Reports


time (UTC)temp
C
wind
direction
speed
KPH
gust
KPH
rain 1hr
cm
rain 24hr
cm
rain mn
cm
humidity
%
barometer
mb
20260507074038 10 28 6.4 11.3 0.00 0.00 0.00 26 1015.2
20260507073039 10 79 6.4 12.9 0.00 0.00 0.00 26 1015.3
20260507072037 10 51 8.0 16.1 0.00 0.00 0.00 27 1015.3
20260507071055 10 61 8.0 16.1 0.00 0.00 0.00 28 1015.3
20260507070034 10 54 6.4 14.5 0.00 0.00 0.00 29 1015.2
20260507065034 9 49 8.0 16.1 0.00 0.00 0.00 31 1015.3
20260507064034 9 44 9.7 16.1 0.00 0.00 0.00 31 1015.3
20260507063054 8 58 9.7 14.5 0.00 0.00 0.00 32 1015.2
20260507062032 8 52 9.7 16.1 0.00 0.00 0.00 34 1015.2
20260507061030 7 66 9.7 16.1 0.00 0.00 0.00 35 1015.1
20260507060030 7 54 9.7 16.1 0.00 0.00 0.00 36 1015.1
20260507055029 7 44 9.7 17.7 0.00 0.00 0.00 36 1015.1
20260507054027 6 50 9.7 19.3 0.00 0.00 0.00 37 1015.0
20260507053026 6 45 8.0 19.3 0.00 0.00 0.00 40 1015.0
20260507052044 5 11 6.4 9.7 0.00 0.00 0.00 45 1015.1
20260507051044 3 1 6.4 9.7 0.00 0.00 0.00 48 1015.0
20260507050024 3 18 6.4 9.7 0.00 0.00 0.00 47 1015.0
20260507045022 3 1 6.4 11.3 0.00 0.00 0.00 50 1015.0
20260507044021 2 343 6.4 11.3 0.00 0.00 0.00 53 1014.9
20260507043022 2 332 6.4 11.3 0.00 0.00 0.00 54 1014.9
20260507042040 2 343 6.4 9.7 0.00 0.00 0.00 53 1015.0
20260507041019 2 344 6.4 9.7 0.00 0.00 0.00 54 1015.0
20260507040037 2 341 8.0 11.3 0.00 0.00 0.00 54 1015.0
20260507035016 1 336 8.0 9.7 0.00 0.00 0.00 55 1015.0
20260507034046 1 355 8.0 9.7 0.00 0.00 0.00 52 1014.9
20260507033044 1 1 6.4 11.3 0.00 0.00 0.00 53 1014.8
20260507032045 3 30 8.0 14.5 0.00 0.00 0.00 46 1014.8
20260507031104 3 34 9.7 14.5 0.00 0.00 0.00 44 1014.7
20260507030043 2 29 9.7 14.5 0.00 0.00 0.00 44 1014.6
20260507025101 1 12 9.7 14.5 0.00 0.00 0.00 49 1014.6
20260507024040 1 5 8.0 11.3 0.00 0.00 0.00 50 1014.6
20260507023039 1 15 8.0 14.5 0.00 0.00 0.00 50 1014.6
20260507022057 1 14 9.7 14.5 0.00 0.00 0.00 49 1014.6
20260507021038 1 4 8.0 11.3 0.00 0.00 0.00 49 1014.6
20260507020036 1 346 4.8 9.7 0.00 0.00 0.00 50 1014.6
20260507015035 1 14 6.4 11.3 0.00 0.00 0.00 51 1014.6
20260507014055 2 38 8.0 16.1 0.00 0.00 0.00 45 1014.5
20260507013034 2 51 9.7 16.1 0.00 0.00 0.00 44 1014.4
20260507012052 2 49 8.0 14.5 0.00 0.00 0.00 43 1014.4
20260507011033 2 58 9.7 14.5 0.00 0.00 0.00 42 1014.4
20260507010031 3 50 11.3 16.1 0.00 0.00 0.00 40 1014.4
20260507005030 3 50 11.3 16.1 0.00 0.00 0.00 40 1014.3
20260507004029 3 43 11.3 16.1 0.00 0.00 0.00 39 1014.3
20260507003027 3 36 11.3 16.1 0.00 0.00 0.00 37 1014.2
20260507002026 3 40 11.3 17.7 0.00 0.00 0.00 38 1014.2
20260507001026 3 42 11.3 17.7 0.00 0.00 0.00 38 1014.2
20260507000025 3 21 8.0 16.1 0.00 0.00 0.00 39 1014.3
20260506235023 2 16 8.0 14.5 0.00 0.00 0.00 40 1014.3
20260506234024 2 23 8.0 12.9 0.00 0.00 0.00 40 1014.3
20260506233022 2 12 6.4 9.7 0.00 0.00 0.00 41 1014.3
20260506232020 2 2 6.4 9.7 0.00 0.00 0.00 41 1014.2
20260506231020 3 11 8.0 11.3 0.00 0.00 0.00 40 1014.2
20260506230019 3 15 8.0 11.3 0.00 0.00 0.00 40 1014.2
20260506225018 3 2 6.4 11.3 0.00 0.00 0.00 40 1014.2
20260506224017 3 353 6.4 9.7 0.00 0.00 0.00 40 1014.2
20260506223046 3 349 6.4 11.3 0.00 0.00 0.00 40 1014.1
20260506222046 3 349 6.4 11.3 0.00 0.00 0.00 40 1014.1
20260506221045 3 347 4.8 8.0 0.00 0.00 0.00 46 1014.0
20260506220043 3 336 4.8 8.0 0.00 0.00 0.00 52 1014.0
20260506215101 3 341 6.4 11.3 0.00 0.00 0.00 47 1014.0
20260506214042 4 343 6.4 8.0 0.00 0.00 0.00 44 1014.0
20260506213100 3 340 4.8 8.0 0.00 0.00 0.00 44 1013.9
20260506212039 3 340 4.8 8.0 0.00 0.00 0.00 45 1013.9
20260506211038 4 331 6.4 9.7 0.00 0.00 0.00 43 1013.8
20260506210037 5 340 6.4 9.7 0.00 0.00 0.00 39 1013.8
20260506205035 5 344 6.4 9.7 0.00 0.00 0.00 39 1013.8
20260506204037 5 335 4.8 9.7 0.00 0.00 0.00 42 1013.7
20260506203033 5 331 4.8 8.0 0.00 0.00 0.00 40 1013.7
20260506202033 5 337 6.4 9.7 0.00 0.00 0.00 38 1013.7
20260506201034 5 328 4.8 11.3 0.00 0.00 0.00 38 1013.7
20260506200033 5 315 4.8 8.0 0.00 0.00 0.00 36 1013.7
20260506195030 5 317 4.8 8.0 0.00 0.00 0.00 32 1013.6
20260506194031 6 331 4.8 8.0 0.00 0.00 0.00 28 1013.6
20260506193029 6 346 4.8 8.0 0.00 0.00 0.00 26 1013.6
20260506192028 6 358 4.8 8.0 0.00 0.00 0.00 25 1013.5
20260506191027 6 355 3.2 6.4 0.00 0.00 0.00 25 1013.4
20260506190047 6 356 3.2 6.4 0.00 0.00 0.00 27 1013.4
20260506185045 6 5 1.6 4.8 0.00 0.00 0.00 32 1013.3
20260506184024 7 12 1.6 4.8 0.00 0.00 0.00 30 1013.3
20260506183023 7 6 1.6 4.8 0.00 0.00 0.00 29 1013.3
20260506182023 7 332 3.2 9.7 0.00 0.00 0.00 28 1013.3
20260506181041 8 333 4.8 8.0 0.00 0.00 0.00 28 1013.2
20260506180040 8 338 4.8 8.0 0.00 0.00 0.00 27 1013.2
20260506175041 8 338 4.8 11.3 0.00 0.00 0.00 26 1013.1
20260506174019 8 348 8.0 12.9 0.00 0.00 0.00 24 1013.1
20260506173037 8 345 6.4 12.9 0.00 0.00 0.00 26 1013.1
20260506172037 9 332 6.4 12.9 0.00 0.00 0.00 25 1013.0
20260506171105 9 335 4.8 9.7 0.00 0.00 0.00 25 1012.9
20260506170046 10 324 6.4 14.5 0.00 0.00 0.00 24 1012.8
20260506165044 10 325 8.0 16.1 0.00 0.00 0.00 23 1012.8
20260506164043 10 310 9.7 19.3 0.00 0.00 0.00 23 1012.7
20260506163043 10 297 8.0 14.5 0.00 0.00 0.00 23 1012.8
20260506162041 10 313 8.0 14.5 0.00 0.00 0.00 24 1012.7
20260506161039 10 296 8.0 14.5 0.00 0.00 0.00 22 1012.7
20260506160039 10 305 8.0 14.5 0.00 0.00 0.00 21 1012.6
20260506155057 10 255 9.7 16.1 0.00 0.00 0.00 22 1012.7
20260506154037 10 254 11.3 16.1 0.00 0.00 0.00 21 1012.7
20260506153037 10 283 8.0 14.5 0.00 0.00 0.00 23 1012.6
20260506152055 10 278 4.8 9.7 0.00 0.00 0.00 23 1012.6
20260506151035 10 247 6.4 12.9 0.00 0.00 0.00 21 1012.6
20260506150033 10 271 9.7 14.5 0.00 0.00 0.00 21 1012.7
20260506145034 11 245 11.3 16.1 0.00 0.00 0.00 22 1012.8
20260506144031 10 239 12.9 19.3 0.00 0.00 0.00 23 1012.8
20260506143029 11 250 11.3 25.7 0.00 0.00 0.00 22 1012.8
20260506142030 11 265 9.7 17.7 0.00 0.00 0.00 24 1012.8
20260506141048 11 259 4.8 16.1 0.00 0.00 0.00 24 1012.7
20260506140027 10 268 6.4 11.3 0.00 0.00 0.00 25 1012.8
20260506135026 10 261 6.4 12.9 0.00 0.00 0.00 25 1012.9
20260506134026 10 275 6.4 9.7 0.00 0.00 0.00 25 1012.9
20260506133045 10 280 6.4 14.5 0.00 0.00 0.00 24 1012.9
20260506132023 10 301 9.7 16.1 0.00 0.00 0.00 25 1012.8
20260506131023 10 244 9.7 20.9 0.00 0.00 0.00 25 1012.8
20260506130021 11 233 12.9 20.9 0.00 0.00 0.00 24 1012.7
20260506125021 11 226 12.9 20.9 0.00 0.00 0.00 25 1012.7
20260506124020 11 229 12.9 19.3 0.00 0.00 0.00 27 1012.8
20260506123019 10 259 14.5 22.5 0.00 0.00 0.00 28 1012.9
20260506122017 11 279 12.9 22.5 0.00 0.00 0.00 26 1012.8
20260506121018 11 313 9.7 20.9 0.00 0.00 0.00 25 1012.8
20260506120046 11 297 8.0 19.3 0.00 0.00 0.00 27 1012.7
20260506115046 10 331 9.7 19.3 0.00 0.00 0.00 27 1012.7
20260506114045 9 305 8.0 16.1 0.00 0.00 0.00 30 1012.7
20260506113044 9 288 8.0 16.1 0.00 0.00 0.00 30 1012.8
20260506112103 8 318 9.7 16.1 0.00 0.00 0.00 29 1012.9
20260506111042 8 322 9.7 19.3 0.00 0.00 0.00 31 1012.8
20260506105040 10 313 12.9 22.5 0.00 0.00 0.00 30 1012.7
20260506104038 10 309 11.3 20.9 0.00 0.00 0.00 28 1012.7
20260506103037 10 266 11.3 25.7 0.00 0.00 0.00 28 1012.6
20260506102056 10 255 11.3 29.0 0.00 0.00 0.00 25 1012.6
20260506101036 9 265 12.9 29.0 0.00 0.00 0.00 26 1012.6
20260506100055 8 284 9.7 17.7 0.00 0.00 0.00 32 1012.6
20260506095033 8 294 12.9 24.1 0.00 0.00 0.00 31 1012.7
20260506094052 9 316 9.7 17.7 0.00 0.00 0.00 31 1012.5
20260506093053 8 305 11.3 20.9 0.00 0.00 0.00 31 1012.4
20260506092031 8 292 12.9 20.9 0.00 0.00 0.00 32 1012.4
20260506091030 8 307 11.3 20.9 0.00 0.00 0.00 34 1012.3
20260506090109 9 259 11.3 19.3 0.00 0.00 0.00 32 1012.3
20260506085107 8 279 11.3 27.4 0.00 0.00 0.00 33 1012.4
20260506084026 8 275 9.7 17.7 0.00 0.00 0.00 32 1012.3
20260506083027 8 295 8.0 19.3 0.00 0.00 0.00 34 1012.3
20260506082046 7 309 8.0 20.9 0.00 0.00 0.00 37 1012.3
20260506081024 7 281 8.0 17.7 0.00 0.00 0.00 40 1012.2
20260506080104 8 271 11.3 24.1 0.00 0.00 0.00 38 1012.1